Flag for Germany Weather past 2 weeks in Lutherstadt Eisleben, Saxony-Anhalt, Germany

Now
82 °F

Partly sunny.


Feels Like: 81 °F
Forecast: 65 / 80 °F
Wind: 7 mph from Northeast

Location: Leipzig-Schkeuditz

Current Time: Jul 22, 2014 at 3:48:45 PM

Latest Report: Jul 22, 2014 at 3:00 PM


Visibility: 31 mi

Pressure: 29.97 "Hg

Humidity: 33%

Dew point: 50 °F

Location of Lutherstadt EislebenLocation

Historic Weather in Lutherstadt Eisleben — Graph

°F

Lutherstadt Eisleben temperature yesterday

Maximum temperature yesterday: 77 °F (at 12:00 AM)
Minimum temperature yesterday: 71 °F (at 6:00 AM)
Average temperature yesterday: 73 °F

Past Weeks' High & Low Weather Summary

 TemperatureHumidityPressure
High93 °F (Jul 20, 5:00 PM)97% (Jul 9, 1:00 AM)30.19 "Hg (Jul 9, 1:00 AM)
Low52 °F (Jul 13, 5:00 AM)20% (Jul 19, 3:00 PM)29.60 "Hg (Jul 9, 2:00 AM)
Average70 °F68%29.91 "Hg
* Reported Jul 7 2:00 PM — Jul 22 2:00 PM, Lutherstadt Eisleben, Weather by CustomWeather, © 2014

Note: Actual official high and low records may vary slightly from our data, if they occured in-between our weather recording intervals... More about our weather records

Advertising

Lutherstadt Eisleben weather history for previous 24 hours

 ConditionsComfort  
Time TempWeatherWind HumidityBarometerVisibility
2:00 PM
Jul 22
82 °FPartly sunny.7 mph33%29.97 "Hg31 mi
1:00 PM80 °FPartly sunny.3 mph43%29.97 "Hg31 mi
12:00 PM80 °FPassing clouds.3 mph49%29.97 "Hg31 mi
10:00 AM72 °FScattered clouds.3 mph68%29.97 "Hg31 mi
9:00 AM70 °FScattered clouds.2 mph75%29.97 "Hg28 mi
8:00 AM66 °FScattered clouds.3 mph82%29.96 "Hg25 mi
7:00 AM64 °FOvercast.3 mph88%29.95 "Hg16 mi
6:00 AM62 °FOvercast.2 mph89%29.93 "Hg14 mi
4:00 AM66 °FOvercast.3 mph79%29.90 "Hg12 mi
3:00 AM68 °FOvercast.3 mph76%29.89 "Hg10 mi
2:00 AM68 °FOvercast.3 mph75%29.88 "Hg9 mi
1:00 AM70 °FOvercast.3 mph74%29.87 "Hg9 mi
12:00 AM69 °FOvercast.2 mph90%29.86 "Hg9 mi
10:00 PM
Jul 21
71 °FOvercast.2 mph89%29.85 "Hg6 mi
9:00 PM72 °FOvercast.1 mph85%29.85 "Hg5 mi
8:00 PM72 °FOvercast.1 mph81%29.84 "Hg7 mi
7:00 PM72 °FOvercast.2 mph79%29.84 "Hg6 mi
6:00 PM74 °FSprinkles. Overcast.5 mph84%29.83 "Hg7 mi
4:00 PM73 °FThunderstorms. Overcast.5 mph82%29.83 "Hg7 mi
3:00 PM74 °FOvercast.6 mph80%29.82 "Hg7 mi
Weather by CustomWeather, © 2014

See weather overviewHow to use our weather pages